AZA2447 LICC-LIRZ

Flight info

Callsign AZA2447
Flight time 1h 17m
Altitude 32000
Route BUDIN DCT DELER DCT TIBER/N0365F180 Y106 GITOD
Aircraft MD88/M-SDFGIRWY/C

Departure

Time 2026-04-27 11:20
Airport Catania-Fontanarossa Airport (LICC)

Arrival

Time 2026-04-27 12:37
Airport Perugia San Francesco d'Assisi – Umbria International Airport (LIRZ)
Time Latitude Longitude Altitude Speed Heading
2026-04-27 11:08 37.46844 15.05892 33 ft 0 kts 354°
2026-04-27 11:16 37.46845 15.05892 33 ft 0 kts 352°
2026-04-27 11:17 37.46847 15.05890 33 ft 1 kts 325°
2026-04-27 11:17 37.46845 15.05873 33 ft 4 kts 248°
2026-04-27 11:17 37.46826 15.05813 34 ft 10 kts 248°
2026-04-27 11:17 37.46790 15.05704 36 ft 16 kts 246°
2026-04-27 11:18 37.46752 15.05549 38 ft 20 kts 262°
2026-04-27 11:18 37.46728 15.05349 40 ft 23 kts 248°
2026-04-27 11:18 37.46634 15.05214 43 ft 18 kts 209°
2026-04-27 11:18 37.46565 15.05279 42 ft 14 kts 86°
2026-04-27 11:19 37.46571 15.05351 41 ft 0 kts 84°
2026-04-27 11:19 37.46577 15.05428 40 ft 32 kts 84°
2026-04-27 11:20 37.46627 15.05994 31 ft 96 kts 84°
2026-04-27 11:20 37.46717 15.07062 37 ft 145 kts 84°
2026-04-27 11:20 37.46816 15.08388 441 ft 157 kts 85°
2026-04-27 11:20 37.46883 15.09723 1104 ft 152 kts 88°
2026-04-27 11:21 37.46931 15.11055 1567 ft 161 kts 82°
2026-04-27 11:21 37.47169 15.12561 1725 ft 192 kts 81°
2026-04-27 11:21 37.47428 15.14223 2275 ft 202 kts 80°
2026-04-27 11:21 37.47715 15.16117 2397 ft 238 kts 80°
2026-04-27 11:22 37.48030 15.18213 2949 ft 244 kts 80°
2026-04-27 11:22 37.48347 15.20345 3287 ft 258 kts 80°
2026-04-27 11:22 37.48667 15.22530 4230 ft 254 kts 80°
2026-04-27 11:22 37.48984 15.24717 4922 ft 261 kts 79°
2026-04-27 11:23 37.49299 15.26975 5715 ft 264 kts 77°
2026-04-27 11:23 37.50022 15.29126 6244 ft 275 kts 54°
2026-04-27 11:23 37.51354 15.30843 6954 ft 279 kts 34°
2026-04-27 11:23 37.53020 15.32065 7655 ft 283 kts 29°
2026-04-27 11:24 37.54721 15.33305 8386 ft 284 kts 29°
2026-04-27 11:24 37.56427 15.34565 9067 ft 288 kts 28°
2026-04-27 11:24 37.58159 15.35858 9806 ft 291 kts 28°
2026-04-27 11:24 37.59908 15.37174 10391 ft 298 kts 29°
2026-04-27 11:25 37.61763 15.38581 10406 ft 326 kts 29°
2026-04-27 11:25 37.63777 15.40118 10718 ft 342 kts 29°
2026-04-27 11:25 37.65768 15.41651 11482 ft 341 kts 30°
2026-04-27 11:25 37.67810 15.43227 12033 ft 347 kts 30°
2026-04-27 11:26 37.69876 15.44815 12658 ft 349 kts 25°
2026-04-27 11:26 37.72187 15.45679 13213 ft 348 kts
2026-04-27 11:26 37.74572 15.45475 13826 ft 346 kts 344°
2026-04-27 11:26 37.76818 15.44355 14370 ft 347 kts 334°
2026-04-27 11:27 37.79008 15.43142 14952 ft 351 kts 334°
2026-04-27 11:27 37.81262 15.41909 15500 ft 354 kts 335°
2026-04-27 11:27 37.83541 15.40685 16049 ft 357 kts 336°
2026-04-27 11:27 37.85856 15.39457 16591 ft 360 kts 336°
2026-04-27 11:28 37.88152 15.38252 17116 ft 364 kts 336°
2026-04-27 11:28 37.90517 15.37019 17608 ft 368 kts 336°
2026-04-27 11:28 37.92900 15.35786 18082 ft 372 kts 337°
2026-04-27 11:28 37.95299 15.34555 18654 ft 373 kts 337°
2026-04-27 11:29 37.97695 15.33327 19201 ft 375 kts 337°
2026-04-27 11:29 38.00119 15.32088 19606 ft 381 kts 337°
2026-04-27 11:29 38.02565 15.30842 20144 ft 382 kts 337°
2026-04-27 11:29 38.05062 15.29573 20639 ft 384 kts 337°
2026-04-27 11:30 38.07544 15.28313 21111 ft 387 kts 337°
2026-04-27 11:30 38.10031 15.27051 21588 ft 389 kts 337°
2026-04-27 11:30 38.12547 15.25777 22039 ft 391 kts 337°
2026-04-27 11:30 38.15086 15.24490 22459 ft 394 kts 337°
2026-04-27 11:31 38.17613 15.23212 22964 ft 395 kts 337°
2026-04-27 11:31 38.20209 15.21897 23358 ft 399 kts 337°
2026-04-27 11:31 38.22760 15.20608 23803 ft 401 kts 337°
2026-04-27 11:31 38.25375 15.19285 24230 ft 403 kts 337°
2026-04-27 11:32 38.27968 15.17975 24653 ft 405 kts 337°
2026-04-27 11:32 38.30568 15.16661 25042 ft 407 kts 337°
2026-04-27 11:32 38.33237 15.15312 25431 ft 409 kts 337°
2026-04-27 11:32 38.35865 15.13983 25814 ft 411 kts 337°
2026-04-27 11:33 38.38532 15.12637 26211 ft 412 kts 337°
2026-04-27 11:33 38.41216 15.11281 26530 ft 416 kts 337°
2026-04-27 11:33 38.43878 15.09935 26892 ft 417 kts 337°
2026-04-27 11:33 38.46573 15.08574 27288 ft 418 kts 337°
2026-04-27 11:34 38.49289 15.07166 27723 ft 418 kts 335°
2026-04-27 11:34 38.51958 15.05748 28215 ft 416 kts 335°
2026-04-27 11:34 38.54602 15.04334 28639 ft 416 kts 336°
2026-04-27 11:34 38.57274 15.02905 29115 ft 415 kts 335°
2026-04-27 11:35 38.59909 15.01494 29584 ft 413 kts 335°
2026-04-27 11:35 38.62553 15.00075 30000 ft 413 kts 335°
2026-04-27 11:35 38.65198 14.98655 30386 ft 413 kts 335°
2026-04-27 11:35 38.67833 14.97238 30814 ft 411 kts 335°
2026-04-27 11:36 38.70495 14.95807 31167 ft 412 kts 335°
2026-04-27 11:36 38.73121 14.94396 31565 ft 410 kts 335°
2026-04-27 11:36 38.75724 14.92996 31912 ft 410 kts 335°
2026-04-27 11:36 38.78393 14.91560 32136 ft 411 kts 335°
2026-04-27 11:37 38.83751 14.88677 32125 ft 426 kts 335°
2026-04-27 11:37 38.89235 14.85726 32130 ft 428 kts 336°
2026-04-27 11:38 38.94721 14.82774 32132 ft 425 kts 336°
2026-04-27 11:38 39.00163 14.79847 32132 ft 426 kts 336°
2026-04-27 11:39 39.05609 14.76918 32133 ft 426 kts 336°
2026-04-27 11:39 39.11100 14.73966 32132 ft 426 kts 336°
2026-04-27 11:40 39.16572 14.71023 32133 ft 426 kts 336°
2026-04-27 11:40 39.22036 14.68085 32131 ft 426 kts 336°
2026-04-27 11:41 39.27490 14.65127 32133 ft 426 kts 336°
2026-04-27 11:41 39.32943 14.62140 32132 ft 426 kts 336°
2026-04-27 11:42 39.38403 14.59141 32132 ft 426 kts 336°
2026-04-27 11:42 39.43845 14.56147 32129 ft 426 kts 336°
2026-04-27 11:43 39.49304 14.53141 32130 ft 426 kts 336°
2026-04-27 11:43 39.54760 14.50135 32131 ft 426 kts 336°
2026-04-27 11:44 39.60204 14.47135 32132 ft 426 kts 336°
2026-04-27 11:44 39.65637 14.44142 32132 ft 426 kts 336°
2026-04-27 11:45 39.70223 14.41615 32131 ft 426 kts 336°
2026-04-27 11:45 39.76568 14.38120 32131 ft 426 kts 336°
2026-04-27 11:46 39.82034 14.35109 32130 ft 426 kts 336°
2026-04-27 11:46 39.87501 14.32098 32132 ft 426 kts 336°
2026-04-27 11:47 39.92936 14.29106 32132 ft 426 kts 336°
2026-04-27 11:47 39.98397 14.26098 32130 ft 426 kts 336°
2026-04-27 11:48 40.03884 14.23055 32133 ft 426 kts 336°
2026-04-27 11:48 40.09335 14.20011 32132 ft 426 kts 336°
2026-04-27 11:49 40.14788 14.16965 32133 ft 425 kts 336°
2026-04-27 11:49 40.20143 14.13748 32132 ft 418 kts 331°
2026-04-27 11:50 40.22614 14.11980 32120 ft 405 kts 330°
2026-04-27 11:50 40.25052 14.10202 32114 ft 396 kts 330°
2026-04-27 11:50 40.29888 14.06660 32141 ft 401 kts 330°
2026-04-27 11:51 40.34781 14.03069 32134 ft 404 kts 330°
2026-04-27 11:52 40.42088 13.97698 32135 ft 402 kts 330°
2026-04-27 11:52 40.46978 13.94102 32133 ft 401 kts 330°
2026-04-27 11:53 40.51854 13.90514 32130 ft 402 kts 330°
2026-04-27 11:53 40.56698 13.86951 32128 ft 401 kts 330°
2026-04-27 11:54 40.61581 13.83359 32132 ft 401 kts 330°
2026-04-27 11:54 40.66440 13.79785 32134 ft 402 kts 330°
2026-04-27 11:55 40.71321 13.76196 32131 ft 400 kts 330°
2026-04-27 11:55 40.73759 13.74403 31771 ft 407 kts 330°
2026-04-27 11:55 40.76223 13.72592 31324 ft 408 kts 330°
2026-04-27 11:55 40.78709 13.70763 30870 ft 406 kts 330°
2026-04-27 11:56 40.81157 13.68964 30420 ft 403 kts 330°
2026-04-27 11:56 40.83622 13.67153 29959 ft 402 kts 330°
2026-04-27 11:56 40.86050 13.65369 29519 ft 403 kts 330°
2026-04-27 11:56 40.88511 13.63561 29072 ft 404 kts 330°
2026-04-27 11:57 40.90991 13.61739 28658 ft 403 kts 330°
2026-04-27 11:57 40.93428 13.59950 28251 ft 402 kts 330°
2026-04-27 11:57 40.95866 13.58139 27861 ft 403 kts 330°
2026-04-27 11:57 40.98301 13.56318 27460 ft 405 kts 330°
2026-04-27 11:58 41.00731 13.54496 27083 ft 406 kts 330°
2026-04-27 11:58 41.03178 13.52657 26692 ft 408 kts 330°
2026-04-27 11:58 41.05638 13.50807 26308 ft 408 kts 330°
2026-04-27 11:58 41.08112 13.48944 25916 ft 409 kts 330°
2026-04-27 11:59 41.10589 13.47077 25525 ft 410 kts 330°
2026-04-27 11:59 41.13050 13.45222 25154 ft 408 kts 330°
2026-04-27 11:59 41.15512 13.43365 24756 ft 408 kts 330°
2026-04-27 11:59 41.17985 13.41499 24372 ft 409 kts 330°
2026-04-27 12:00 41.20447 13.39641 23987 ft 412 kts 330°
2026-04-27 12:00 41.22951 13.37752 23605 ft 413 kts 330°
2026-04-27 12:00 41.25421 13.35887 23226 ft 414 kts 330°
2026-04-27 12:00 41.27932 13.33991 22849 ft 415 kts 329°
2026-04-27 12:01 41.30433 13.32104 22451 ft 416 kts 329°
2026-04-27 12:01 41.32952 13.30203 22080 ft 416 kts 329°
2026-04-27 12:01 41.35451 13.28318 21693 ft 417 kts 329°
2026-04-27 12:01 41.37966 13.26420 21315 ft 418 kts 329°
2026-04-27 12:02 41.40519 13.24494 20918 ft 418 kts 329°
2026-04-27 12:02 41.43055 13.22580 20540 ft 421 kts 329°
2026-04-27 12:02 41.45586 13.20672 20166 ft 425 kts 330°
2026-04-27 12:02 41.48159 13.18731 19797 ft 426 kts 330°
2026-04-27 12:03 41.50758 13.16771 19418 ft 426 kts 330°
2026-04-27 12:03 41.53313 13.14844 19042 ft 427 kts 330°
2026-04-27 12:03 41.55895 13.12898 18685 ft 427 kts 330°
2026-04-27 12:03 41.58474 13.10954 18311 ft 427 kts 330°
2026-04-27 12:04 41.61022 13.09034 17943 ft 412 kts 330°
2026-04-27 12:04 41.63461 13.07198 17536 ft 392 kts 330°
2026-04-27 12:04 41.65787 13.05447 17142 ft 380 kts 330°
2026-04-27 12:04 41.68087 13.03696 16748 ft 383 kts 329°
2026-04-27 12:05 41.70405 13.01920 16381 ft 392 kts 330°
2026-04-27 12:05 41.72812 13.00071 16021 ft 397 kts 330°
2026-04-27 12:05 41.75190 12.98242 15661 ft 399 kts 330°
2026-04-27 12:05 41.77584 12.96398 15299 ft 400 kts 330°
2026-04-27 12:06 41.80001 12.94535 14941 ft 401 kts 330°
2026-04-27 12:06 41.82406 12.92680 14570 ft 402 kts 330°
2026-04-27 12:06 41.84847 12.90797 14206 ft 403 kts 330°
2026-04-27 12:06 41.87258 12.88936 13841 ft 405 kts 330°
2026-04-27 12:07 41.89718 12.87037 13469 ft 402 kts 330°
2026-04-27 12:07 41.92073 12.85220 13074 ft 383 kts 330°
2026-04-27 12:07 41.94333 12.83477 12669 ft 366 kts 330°
2026-04-27 12:07 41.96471 12.81828 12268 ft 352 kts 330°
2026-04-27 12:08 41.98573 12.80207 11852 ft 340 kts 330°
2026-04-27 12:08 42.00583 12.78657 11444 ft 329 kts 330°
2026-04-27 12:08 42.02546 12.77143 11046 ft 320 kts 330°
2026-04-27 12:08 42.04432 12.75689 10659 ft 312 kts 331°
2026-04-27 12:09 42.06307 12.74244 10259 ft 305 kts 330°
2026-04-27 12:09 42.08093 12.72867 10115 ft 290 kts 331°
2026-04-27 12:09 42.09787 12.71561 10078 ft 273 kts 331°
2026-04-27 12:09 42.11460 12.70272 9487 ft 279 kts 331°
2026-04-27 12:10 42.13129 12.68985 9041 ft 277 kts 331°
2026-04-27 12:10 42.14777 12.67715 8628 ft 274 kts 331°
2026-04-27 12:10 42.16441 12.66432 8185 ft 273 kts 331°
2026-04-27 12:10 42.18093 12.65160 7539 ft 280 kts 331°
2026-04-27 12:11 42.19784 12.63856 7036 ft 279 kts 331°
2026-04-27 12:11 42.21463 12.62562 6590 ft 277 kts 331°
2026-04-27 12:11 42.23116 12.61287 6144 ft 275 kts 331°
2026-04-27 12:11 42.24797 12.60044 5717 ft 272 kts 335°
2026-04-27 12:12 42.26475 12.59043 5643 ft 261 kts 340°
2026-04-27 12:12 42.28189 12.58164 5646 ft 265 kts 340°
2026-04-27 12:12 42.29921 12.57272 5527 ft 272 kts 340°
2026-04-27 12:12 42.31683 12.56363 5527 ft 272 kts 340°
2026-04-27 12:13 42.33452 12.55446 5527 ft 272 kts 340°
2026-04-27 12:13 42.35228 12.54524 5517 ft 272 kts 340°
2026-04-27 12:13 42.37000 12.53602 5519 ft 272 kts 340°
2026-04-27 12:13 42.38760 12.52685 5521 ft 272 kts 340°
2026-04-27 12:14 42.40522 12.51767 5525 ft 272 kts 340°
2026-04-27 12:14 42.42273 12.50852 5520 ft 272 kts 340°
2026-04-27 12:14 42.44058 12.49921 5518 ft 272 kts 340°
2026-04-27 12:14 42.45797 12.49012 5523 ft 272 kts 340°
2026-04-27 12:15 42.47566 12.48088 5518 ft 271 kts 340°
2026-04-27 12:15 42.49334 12.47164 5513 ft 271 kts 340°
2026-04-27 12:15 42.51093 12.46243 5514 ft 271 kts 340°
2026-04-27 12:15 42.52863 12.45317 5512 ft 272 kts 340°
2026-04-27 12:16 42.54621 12.44397 5511 ft 271 kts 340°
2026-04-27 12:16 42.56382 12.43476 5511 ft 271 kts 340°
2026-04-27 12:16 42.58126 12.42563 5512 ft 271 kts 340°
2026-04-27 12:16 42.59893 12.41637 5513 ft 271 kts 340°
2026-04-27 12:17 42.61646 12.40719 5516 ft 271 kts 340°
2026-04-27 12:17 42.63413 12.39794 5503 ft 271 kts 340°
2026-04-27 12:17 42.65165 12.38878 5504 ft 271 kts 340°
2026-04-27 12:17 42.66940 12.37948 5508 ft 271 kts 340°
2026-04-27 12:18 42.68693 12.37030 5504 ft 271 kts 340°
2026-04-27 12:18 42.70439 12.36116 5510 ft 271 kts 340°
2026-04-27 12:18 42.72213 12.35187 5509 ft 271 kts 340°
2026-04-27 12:18 42.73976 12.34264 5508 ft 271 kts 339°
2026-04-27 12:19 42.75740 12.33341 5508 ft 271 kts 339°
2026-04-27 12:19 42.77483 12.32428 5511 ft 270 kts 339°
2026-04-27 12:19 42.79228 12.31652 5483 ft 262 kts 355°
2026-04-27 12:19 42.81023 12.31939 5517 ft 257 kts 20°
2026-04-27 12:20 42.82511 12.33221 5521 ft 257 kts 43°
2026-04-27 12:20 42.83867 12.34842 5515 ft 260 kts 41°
2026-04-27 12:20 42.85216 12.36437 5505 ft 254 kts 40°
2026-04-27 12:20 42.86528 12.37971 5486 ft 238 kts 40°
2026-04-27 12:21 42.87737 12.39385 5486 ft 223 kts 41°
2026-04-27 12:21 42.88889 12.40745 5477 ft 217 kts 41°
2026-04-27 12:21 42.90038 12.42102 5508 ft 222 kts 40°
2026-04-27 12:21 42.91213 12.43491 5585 ft 216 kts 40°
2026-04-27 12:22 42.92285 12.44781 5537 ft 199 kts 44°
2026-04-27 12:22 42.93396 12.45830 5289 ft 194 kts 23°
2026-04-27 12:22 42.94694 12.46326 4973 ft 194 kts 14°
2026-04-27 12:22 42.96006 12.46771 4586 ft 197 kts 13°
2026-04-27 12:23 42.97316 12.47171 4116 ft 190 kts 12°
2026-04-27 12:23 42.98578 12.47553 3631 ft 187 kts 12°
2026-04-27 12:23 42.99836 12.47949 3145 ft 184 kts 14°
2026-04-27 12:23 43.01050 12.48356 2710 ft 174 kts 13°
2026-04-27 12:24 43.02181 12.48741 2270 ft 161 kts 13°
2026-04-27 12:24 43.03177 12.49083 2137 ft 134 kts 13°
2026-04-27 12:24 43.04051 12.49386 2150 ft 132 kts 14°
2026-04-27 12:24 43.04966 12.49703 2241 ft 139 kts 13°
2026-04-27 12:25 43.05936 12.50040 2247 ft 145 kts 14°
2026-04-27 12:25 43.06912 12.50382 2223 ft 145 kts 14°
2026-04-27 12:25 43.07922 12.50736 2000 ft 160 kts 14°
2026-04-27 12:25 43.08947 12.51094 2186 ft 144 kts 14°
2026-04-27 12:26 43.09911 12.51430 2349 ft 145 kts 13°
2026-04-27 12:26 43.10980 12.51803 2727 ft 171 kts 14°
2026-04-27 12:26 43.12230 12.51960 3170 ft 190 kts
2026-04-27 12:26 43.13601 12.52098 3574 ft 209 kts 351°
2026-04-27 12:27 43.14983 12.51311 3922 ft 224 kts 325°
2026-04-27 12:27 43.15995 12.49780 4029 ft 221 kts 300°
2026-04-27 12:27 43.16425 12.47743 4027 ft 226 kts 274°
2026-04-27 12:27 43.16164 12.45632 4022 ft 226 kts 249°
2026-04-27 12:28 43.15613 12.43634 4020 ft 226 kts 246°
2026-04-27 12:28 43.14676 12.41926 4024 ft 225 kts 226°
2026-04-27 12:28 43.13613 12.40368 4024 ft 226 kts 226°
2026-04-27 12:28 43.12527 12.38783 4016 ft 226 kts 226°
2026-04-27 12:29 43.11359 12.37369 3995 ft 225 kts 210°
2026-04-27 12:29 43.09878 12.36765 4015 ft 224 kts 184°
2026-04-27 12:29 43.08330 12.36604 4024 ft 225 kts 184°
2026-04-27 12:29 43.06756 12.36446 4018 ft 225 kts 184°
2026-04-27 12:30 43.05184 12.36286 3970 ft 227 kts 184°
2026-04-27 12:30 43.03623 12.36129 3850 ft 222 kts 184°
2026-04-27 12:30 43.02109 12.35977 3708 ft 215 kts 184°
2026-04-27 12:30 43.00627 12.35828 3576 ft 212 kts 184°
2026-04-27 12:31 42.99168 12.35682 3454 ft 212 kts 184°
2026-04-27 12:31 42.97689 12.35608 3391 ft 209 kts 173°
2026-04-27 12:31 42.96381 12.36238 3393 ft 193 kts 154°
2026-04-27 12:31 42.95190 12.37002 3394 ft 187 kts 154°
2026-04-27 12:32 42.94014 12.37763 3408 ft 188 kts 154°
2026-04-27 12:32 42.93032 12.38888 3373 ft 184 kts 117°
2026-04-27 12:32 42.92781 12.40554 3415 ft 176 kts 93°
2026-04-27 12:32 42.92683 12.42191 3401 ft 170 kts 94°
2026-04-27 12:33 42.92668 12.43772 3380 ft 165 kts 78°
2026-04-27 12:33 42.93141 12.45153 3411 ft 163 kts 53°
2026-04-27 12:33 42.94053 12.46063 3215 ft 169 kts 18°
2026-04-27 12:33 42.95193 12.46411 3038 ft 168 kts 12°
2026-04-27 12:34 42.96336 12.46749 2837 ft 165 kts 12°
2026-04-27 12:34 42.97444 12.47092 2825 ft 162 kts 14°
2026-04-27 12:34 42.98502 12.47467 2838 ft 154 kts 14°
2026-04-27 12:34 42.99553 12.47832 2749 ft 157 kts 13°
2026-04-27 12:35 43.00616 12.48194 2527 ft 157 kts 13°
2026-04-27 12:35 43.01675 12.48559 2295 ft 155 kts 13°
2026-04-27 12:35 43.02699 12.48912 2059 ft 146 kts 13°
2026-04-27 12:35 43.03647 12.49242 1823 ft 137 kts 14°
2026-04-27 12:36 43.04547 12.49557 1627 ft 134 kts 14°
2026-04-27 12:36 43.05460 12.49877 1452 ft 134 kts 13°
2026-04-27 12:36 43.06364 12.50185 1226 ft 141 kts 13°
2026-04-27 12:36 43.07314 12.50526 1089 ft 139 kts 15°
2026-04-27 12:37 43.08218 12.50856 836 ft 130 kts 13°
2026-04-27 12:37 43.09090 12.51148 694 ft 124 kts 14°
2026-04-27 12:37 43.09977 12.51451 706 ft 130 kts 13°
2026-04-27 12:37 43.10496 12.51638 713 ft 33 kts 14°
2026-04-27 12:38 43.10712 12.51698 715 ft 26 kts 342°
2026-04-27 12:38 43.10768 12.51621 716 ft 10 kts 297°
2026-04-27 12:38 43.10743 12.51493 715 ft 21 kts 206°
2026-04-27 12:38 43.10571 12.51430 713 ft 29 kts 194°
2026-04-27 12:39 43.10359 12.51357 710 ft 32 kts 194°
2026-04-27 12:39 43.10148 12.51283 707 ft 30 kts 194°
2026-04-27 12:39 43.09951 12.51214 704 ft 28 kts 194°
2026-04-27 12:39 43.09768 12.51129 702 ft 25 kts 225°
2026-04-27 12:40 43.09694 12.50920 700 ft 23 kts 246°
2026-04-27 12:40 43.09631 12.50718 698 ft 22 kts 247°
2026-04-27 12:40 43.09567 12.50536 697 ft 20 kts 243°
2026-04-27 12:40 43.09560 12.50411 696 ft 8 kts 286°
2026-04-27 12:41 43.09570 12.50364 696 ft 2 kts 289°
2026-04-27 12:41 43.09573 12.50351 696 ft 0 kts 288°